FW0532 Weather Reports


Display with metric or nautical units.
time (UTC)temp
F
wind
direction
speed
MPH
gust
MPH
rain 1hr
in
rain 24hr
in
rain mn
in
humidity
%
barometer
mb
20260508065322 48 209 2.0 6.0 0.00 0.00 0.00 69 1012.3
20260508064821 49 200 1.0 6.0 0.00 0.00 0.00 68 1012.3
20260508064321 49 238 2.0 6.0 0.00 0.00 0.00 68 1012.3
20260508063821 49 197 2.0 6.0 0.00 0.00 0.00 68 1012.2
20260508063321 49 227 2.0 6.0 0.00 0.00 0.00 67 1012.3
20260508062821 49 194 3.0 6.0 0.00 0.00 0.00 67 1012.2
20260508062320 49 206 2.0 7.0 0.00 0.00 0.00 67 1012.2
20260508061820 49 203 1.0 7.0 0.00 0.00 0.00 67 1012.2
20260508061320 49 240 1.0 9.0 0.00 0.00 0.00 67 1012.3
20260508060820 49 214 2.0 9.0 0.00 0.00 0.00 67 1012.4
20260508060320 49 196 1.0 7.0 0.00 0.00 0.00 67 1012.3
20260508055820 50 203 2.0 7.0 0.00 0.00 0.00 67 1012.3
20260508055320 50 200 0.0 9.0 0.00 0.00 0.00 66 1012.4
20260508054820 50 207 3.0 10.0 0.00 0.00 0.00 66 1012.3
20260508054319 50 175 4.0 10.0 0.00 0.00 0.00 66 1012.3
20260508053820 50 215 3.0 7.0 0.00 0.00 0.00 66 1012.3
20260508051818 50 189 1.0 9.0 0.00 0.00 0.00 65 1012.4
20260508051319 50 251 6.0 10.0 0.00 0.00 0.00 65 1012.4
20260508050818 51 194 2.0 10.0 0.00 0.00 0.00 65 1012.4
20260508050318 50 224 5.0 10.0 0.00 0.00 0.00 65 1012.3
20260508045818 50 219 2.0 10.0 0.00 0.00 0.00 66 1012.3
20260508045318 50 225 0.0 7.0 0.00 0.00 0.00 66 1012.2
20260508044817 50 209 1.0 7.0 0.00 0.00 0.00 66 1012.4
20260508044317 50 196 3.0 7.0 0.00 0.00 0.00 66 1012.3
20260508043817 50 223 1.0 5.0 0.00 0.00 0.00 67 1012.4
20260508043317 50 217 1.0 7.0 0.00 0.00 0.00 67 1012.4
20260508042817 51 204 0.0 7.0 0.00 0.00 0.00 66 1012.4
20260508042317 51 214 6.0 6.0 0.00 0.00 0.00 66 1012.4
20260508041816 51 211 5.0 5.0 0.00 0.00 0.00 67 1012.3
20260508041317 51 216 3.0 6.0 0.00 0.00 0.00 68 1012.4
20260508040817 50 194 3.0 6.0 0.00 0.00 0.00 72 1012.4
20260508040316 50 217 0.0 5.0 0.00 0.00 0.00 72 1012.4
20260508035816 51 227 1.0 3.0 0.00 0.00 0.00 69 1012.2
20260508035316 51 227 2.0 3.0 0.00 0.00 0.00 68 1012.2
20260508034315 50 207 0.0 4.0 0.00 0.00 0.00 70 1012.2
20260508033816 50 211 1.0 5.0 0.00 0.00 0.00 70 1012.3
20260508033315 50 205 3.0 5.0 0.00 0.00 0.00 70 1012.1
20260508032815 50 211 1.0 4.0 0.00 0.00 0.00 71 1012.3
20260508032315 50 199 3.0 3.0 0.00 0.00 0.00 73 1012.3
20260508031815 50 199 0.0 3.0 0.00 0.00 0.00 72 1012.4
20260508030814 50 211 0.0 3.0 0.00 0.00 0.00 72 1012.4
20260508030314 49 210 0.0 3.0 0.00 0.00 0.00 75 1012.4
20260508025815 49 210 2.0 3.0 0.00 0.00 0.00 77 1012.2
20260508025314 49 210 0.0 0.0 0.00 0.00 0.00 77 1012.3
20260508024814 50 210 0.0 0.0 0.00 0.00 0.00 74 1012.3
20260508024313 50 210 0.0 1.0 0.00 0.00 0.00 72 1012.3
20260508022313 52 211 0.0 2.0 0.00 0.00 0.00 68 1012.4
20260508021813 52 210 0.0 2.0 0.00 0.00 0.00 68 1012.4
20260508021313 51 211 0.0 2.0 0.00 0.00 0.00 69 1012.2
20260508020813 50 210 0.0 1.0 0.00 0.00 0.00 71 1012.2
20260508020612 50 0 0.0 0.0 0.00 0.00 0.00 75 1012.2
20260508015822 49 213 0.0 0.0 0.00 0.00 0.00 76 1012.1
20260508015322 49 213 0.0 0.0 0.00 0.00 0.00 74 1012.0
20260508014822 49 213 0.0 0.0 0.00 0.00 0.00 76 1012.0
20260508014321 49 213 0.0 0.0 0.00 0.00 0.00 78 1011.9
20260508013821 50 213 0.0 0.0 0.00 0.00 0.00 78 1012.1
20260508013321 51 213 0.0 0.0 0.00 0.00 0.00 74 1012.1
20260508012821 50 213 0.0 0.0 0.00 0.00 0.00 73 1011.9
20260508012321 51 213 0.0 0.0 0.00 0.00 0.00 75 1012.0
20260508011320 51 213 0.0 0.0 0.00 0.00 0.00 72 1012.0
20260508010821 51 213 0.0 0.0 0.00 0.00 0.00 70 1012.1
20260508010320 51 213 0.0 0.0 0.00 0.00 0.00 71 1012.0
20260508005320 52 213 0.0 0.0 0.00 0.00 0.00 68 1011.9
20260508004820 53 213 0.0 0.0 0.00 0.00 0.00 64 1012.0
20260508004320 53 213 0.0 2.0 0.00 0.00 0.00 65 1012.1
20260508003820 53 213 0.0 3.0 0.00 0.00 0.00 70 1012.1
20260508003319 52 135 2.0 3.0 0.00 0.00 0.00 68 1012.1
20260508002319 52 195 0.0 0.0 0.00 0.00 0.00 71 1012.0
20260508001819 52 195 0.0 0.0 0.00 0.00 0.00 71 1012.0
20260508000819 53 236 0.0 1.0 0.00 0.00 0.00 65 1012.0
20260508000320 53 219 0.0 0.0 0.00 0.00 0.00 65 1011.9
20260507234819 55 219 0.0 2.0 0.00 0.00 0.00 60 1011.7
20260507234318 57 219 0.0 2.0 0.00 0.00 0.00 54 1011.6
20260507233317 58 180 1.0 6.0 0.00 0.00 0.00 48 1011.6
20260507232818 58 234 0.0 6.0 0.00 0.00 0.00 49 1011.6
20260507231817 59 206 3.0 5.0 0.00 0.00 0.00 46 1011.8
20260507231317 59 182 1.0 4.0 0.00 0.00 0.00 47 1011.8
20260507230817 59 221 2.0 4.0 0.00 0.00 0.00 45 1011.7
20260507230316 58 252 2.0 4.0 0.00 0.00 0.00 52 1011.8
20260507225816 57 246 0.0 6.0 0.00 0.00 0.00 51 1011.6
20260507224816 60 198 6.0 6.0 0.00 0.00 0.00 47 1011.6
20260507224316 60 279 3.0 6.0 0.00 0.00 0.00 50 1011.6
20260507223315 59 34 0.0 7.0 0.00 0.00 0.00 44 1011.5
20260507222816 58 204 0.0 2.0 0.00 0.00 0.00 46 1011.5
20260507222315 59 200 0.0 6.0 0.00 0.00 0.00 49 1011.6
20260507221816 58 200 0.0 6.0 0.00 0.00 0.00 45 1011.7
20260507220815 58 125 0.0 6.0 0.00 0.00 0.00 54 1011.7
20260507220315 58 274 0.0 7.0 0.00 0.00 0.00 48 1011.8
20260507215815 60 293 2.0 7.0 0.00 0.00 0.00 40 1011.9
20260507215315 60 131 0.0 7.0 0.00 0.00 0.00 44 1011.9
20260507214814 60 86 1.0 7.0 0.00 0.00 0.00 45 1011.8
20260507213814 59 321 1.0 5.0 0.00 0.00 0.00 43 1011.7
20260507212814 60 261 1.0 7.0 0.00 0.00 0.00 41 1011.9
20260507212314 61 193 0.0 12.0 0.00 0.00 0.00 48 1012.0
20260507210813 59 348 6.0 6.0 0.00 0.00 0.00 50 1011.9
20260507210314 60 250 1.0 4.0 0.00 0.00 0.00 45 1012.1
20260507205813 59 5 0.0 7.0 0.00 0.00 0.00 55 1012.1
20260507205313 59 355 1.0 11.0 0.00 0.00 0.00 49 1012.2
20260507204313 59 321 1.0 13.0 0.00 0.00 0.00 44 1012.2
20260507203812 60 319 3.0 13.0 0.00 0.00 0.00 44 1012.1
20260507203312 59 325 5.0 11.0 0.00 0.00 0.00 45 1012.0
20260507202812 59 342 5.0 11.0 0.00 0.00 0.00 45 1012.1
20260507202311 60 302 5.0 11.0 0.00 0.00 0.00 44 1012.0
20260507201812 59 281 2.0 18.0 0.00 0.00 0.00 47 1012.0
20260507201311 60 292 5.0 18.0 0.00 0.00 0.00 42 1012.1
20260507200811 61 317 10.0 16.0 0.00 0.00 0.00 47 1012.0
20260507200311 60 186 2.0 11.0 0.00 0.00 0.00 42 1012.1
20260507195811 59 339 7.0 11.0 0.00 0.00 0.00 47 1012.1
20260507195311 59 340 2.0 13.0 0.00 0.00 0.00 45 1012.0
20260507194810 59 271 9.0 14.0 0.00 0.00 0.00 45 1012.3
20260507194310 59 325 9.0 14.0 0.00 0.00 0.00 49 1012.4
20260507193810 59 351 5.0 10.0 0.00 0.00 0.00 46 1012.5
20260507193311 59 308 5.0 10.0 0.00 0.00 0.00 43 1012.5
20260507192310 58 355 5.0 15.0 0.00 0.00 0.00 48 1012.5
20260507191810 58 360 12.0 13.0 0.00 0.00 0.00 46 1012.6
20260507190809 59 304 1.0 12.0 0.00 0.00 0.00 51 1012.6
20260507190309 58 326 4.0 14.0 0.00 0.00 0.00 47 1012.6
20260507185809 58 267 3.0 16.0 0.00 0.00 0.00 50 1012.7
20260507185309 58 308 5.0 16.0 0.00 0.00 0.00 46 1012.7
20260507184808 58 5 2.0 12.0 0.00 0.00 0.00 50 1012.6
20260507184309 58 12 2.0 14.0 0.00 0.00 0.00 52 1012.8
20260507183808 58 146 1.0 14.0 0.00 0.00 0.00 48 1012.8
20260507183308 58 355 5.0 12.0 0.00 0.00 0.00 48 1012.8
20260507182808 57 5 3.0 11.0 0.00 0.00 0.00 47 1012.8
20260507182308 58 44 3.0 13.0 0.00 0.00 0.00 49 1012.9
20260507181808 58 13 6.0 16.0 0.00 0.00 0.00 48 1012.9
20260507181308 57 31 5.0 16.0 0.00 0.00 0.00 47 1012.8
20260507180307 57 326 10.0 19.0 0.00 0.00 0.00 47 1013.0
20260507175807 57 317 9.0 17.0 0.00 0.00 0.00 47 1013.1
20260507175307 57 17 9.0 17.0 0.00 0.00 0.00 46 1013.3
20260507174807 57 310 9.0 15.0 0.00 0.00 0.00 52 1013.3
20260507174306 57 355 6.0 17.0 0.00 0.00 0.00 50 1013.3
20260507173306 56 332 6.0 21.0 0.00 0.00 0.00 50 1013.3
20260507172806 56 341 5.0 21.0 0.00 0.00 0.00 53 1013.2
20260507172308 56 304 14.0 21.0 0.00 0.00 0.00 50 1013.2
20260507171806 56 336 4.0 16.0 0.00 0.00 0.00 49 1013.3
20260507171306 56 15 9.0 16.0 0.00 0.00 0.00 48 1013.3
20260507170806 56 360 8.0 16.0 0.00 0.00 0.00 47 1013.3
20260507165805 56 334 4.0 14.0 0.00 0.00 0.00 56 1013.4
20260507164805 55 329 9.0 16.0 0.00 0.00 0.00 52 1013.4
20260507164305 55 346 5.0 16.0 0.00 0.00 0.00 53 1013.5
20260507163805 56 349 15.0 15.0 0.00 0.00 0.00 54 1013.6
20260507163304 55 257 7.0 14.0 0.00 0.00 0.00 51 1013.7
20260507162804 55 242 4.0 13.0 0.00 0.00 0.00 60 1013.8
20260507162307 54 346 11.0 15.0 0.00 0.00 0.00 54 1013.8
20260507161804 54 275 6.0 15.0 0.00 0.00 0.00 54 1013.8
20260507161304 54 284 8.0 15.0 0.00 0.00 0.00 52 1013.7
20260507160303 54 272 5.0 15.0 0.00 0.00 0.00 56 1013.7
20260507155804 54 290 5.0 12.0 0.00 0.00 0.00 54 1013.8
20260507154803 53 273 2.0 16.0 0.00 0.00 0.00 52 1013.8
20260507154303 53 323 1.0 16.0 0.00 0.00 0.00 59 1013.9
20260507153833 53 275 9.0 13.0 0.00 0.00 0.00 53 1013.9
20260507153333 53 292 2.0 13.0 0.00 0.00 0.00 53 1013.9
20260507152832 52 311 6.0 13.0 0.00 0.00 0.00 55 1013.9
20260507152332 53 301 6.0 13.0 0.00 0.00 0.00 51 1013.9
20260507151832 53 209 2.0 13.0 0.00 0.00 0.00 53 1013.8
20260507151332 52 219 4.0 12.0 0.00 0.00 0.00 57 1013.7
20260507150832 52 265 7.0 11.0 0.00 0.00 0.00 54 1013.6
20260507145832 52 355 4.0 12.0 0.00 0.00 0.00 58 1013.7
20260507145331 52 313 1.0 14.0 0.00 0.00 0.00 55 1013.6
20260507144831 51 299 7.0 14.0 0.00 0.00 0.00 59 1013.7
20260507144331 51 38 2.0 14.0 0.00 0.00 0.00 54 1013.7
20260507143831 51 306 5.0 14.0 0.00 0.00 0.00 55 1013.7
20260507143331 51 301 9.0 12.0 0.00 0.00 0.00 56 1013.7
20260507142831 51 278 3.0 12.0 0.00 0.00 0.00 53 1013.7
20260507142331 51 200 3.0 14.0 0.00 0.00 0.00 56 1013.7
20260507141830 50 288 10.0 14.0 0.00 0.00 0.00 55 1013.6
20260507141330 51 18 3.0 13.0 0.00 0.00 0.00 59 1013.7
20260507140830 50 327 3.0 13.0 0.00 0.00 0.00 57 1013.6
20260507135830 50 269 3.0 13.0 0.00 0.00 0.00 54 1013.6
20260507135329 50 355 4.0 12.0 0.00 0.00 0.00 58 1013.7
20260507134329 49 343 3.0 13.0 0.00 0.00 0.00 60 1013.7
20260507133830 49 209 2.0 11.0 0.00 0.00 0.00 59 1013.6
20260507133329 48 5 4.0 11.0 0.00 0.00 0.00 60 1013.7
20260507132829 48 71 2.0 11.0 0.00 0.00 0.00 62 1013.7
20260507132329 48 335 2.0 11.0 0.00 0.00 0.00 67 1013.7
20260507131829 47 355 2.0 7.0 0.00 0.00 0.00 65 1013.7
20260507131328 47 14 2.0 7.0 0.00 0.00 0.00 65 1013.7
20260507125828 47 313 1.0 8.0 0.00 0.00 0.00 67 1013.5
20260507125328 47 297 1.0 8.0 0.00 0.00 0.00 68 1013.5
20260507124827 46 303 2.0 7.0 0.00 0.00 0.00 71 1013.6
20260507123827 45 329 2.0 6.0 0.00 0.00 0.00 75 1013.5
20260507122827 45 286 3.0 5.0 0.00 0.00 0.00 76 1013.6
20260507122327 45 338 0.0 5.0 0.00 0.00 0.00 78 1013.6
20260507121827 44 338 1.0 5.0 0.00 0.00 0.00 80 1013.6
20260507120826 43 213 1.0 5.0 0.00 0.00 0.00 81 1013.6
20260507120326 43 319 0.0 5.0 0.00 0.00 0.00 82 1013.6
20260507115826 42 303 0.0 4.0 0.00 0.00 0.00 82 1013.8
20260507115326 42 338 1.0 3.0 0.00 0.00 0.00 85 1013.8
20260507114826 41 340 1.0 2.0 0.00 0.00 0.00 88 1013.8
20260507114326 41 168 0.0 1.0 0.00 0.00 0.00 89 1013.8
20260507113826 40 168 1.0 1.0 0.00 0.00 0.00 91 1013.8
20260507113325 39 185 0.0 1.0 0.00 0.00 0.00 92 1013.7
20260507112825 39 292 1.0 1.0 0.00 0.00 0.00 93 1013.6
20260507111825 37 339 0.0 0.0 0.00 0.00 0.00 94 1013.5
20260507111325 36 340 0.0 0.0 0.00 0.00 0.00 94 1013.5
20260507110824 36 340 0.0 0.0 0.00 0.00 0.00 93 1013.5
20260507110324 36 340 0.0 0.0 0.00 0.00 0.00 93 1013.4
20260507105824 36 55 0.0 0.0 0.00 0.00 0.00 93 1013.4
20260507105324 36 24 0.0 0.0 0.00 0.00 0.00 93 1013.4
20260507104824 36 294 0.0 0.0 0.00 0.00 0.00 93 1013.2
20260507104324 36 264 0.0 0.0 0.00 0.00 0.00 93 1013.0
20260507103823 36 264 0.0 0.0 0.00 0.00 0.00 93 1013.1
20260507103323 36 264 0.0 0.0 0.00 0.00 0.00 93 1012.9
20260507102823 36 264 0.0 0.0 0.00 0.00 0.00 94 1012.9
20260507102323 36 264 0.0 0.0 0.00 0.00 0.00 94 1012.9
20260507101823 36 264 0.0 0.0 0.00 0.00 0.00 94 1012.7
20260507101323 36 264 0.0 0.0 0.00 0.00 0.00 94 1012.8
20260507100823 36 264 0.0 1.0 0.00 0.00 0.00 93 1012.8
20260507095822 36 264 0.0 1.0 0.00 0.00 0.00 93 1012.8
20260507095322 36 264 0.0 2.0 0.00 0.00 0.00 94 1012.8
20260507094822 36 264 0.0 2.0 0.00 0.00 0.00 93 1012.9
20260507094322 36 261 1.0 1.0 0.00 0.00 0.00 93 1013.0
20260507093822 36 261 0.0 0.0 0.00 0.00 0.00 93 1012.9
20260507092821 37 261 0.0 1.0 0.00 0.00 0.00 93 1013.1
20260507091821 37 261 0.0 1.0 0.00 0.00 0.00 93 1012.8
20260507091321 37 261 0.0 1.0 0.00 0.00 0.00 94 1012.7
20260507090821 37 261 0.0 1.0 0.00 0.00 0.00 94 1012.7
20260507090321 37 261 0.0 1.0 0.00 0.00 0.00 94 1012.7
20260507085820 37 261 0.0 0.0 0.00 0.00 0.00 94 1012.8
20260507085321 37 261 0.0 0.0 0.00 0.00 0.00 94 1012.8
20260507084820 37 261 0.0 0.0 0.00 0.00 0.00 94 1012.7
20260507084320 37 261 0.0 0.0 0.00 0.00 0.00 94 1012.6
20260507083820 37 261 0.0 1.0 0.00 0.00 0.00 94 1012.6
20260507083320 37 261 0.0 1.0 0.00 0.00 0.00 94 1012.5
20260507082819 37 261 0.0 1.0 0.00 0.00 0.00 94 1012.4
20260507082320 37 261 0.0 1.0 0.00 0.01 0.00 94 1012.5
20260507081819 37 261 0.0 0.0 0.00 0.01 0.00 94 1012.5
20260507081319 37 261 0.0 2.0 0.00 0.01 0.00 94 1012.6
20260507080319 38 290 0.0 2.0 0.00 0.01 0.00 94 1012.7
20260507075818 38 289 0.0 2.0 0.00 0.01 0.00 94 1012.6
20260507074818 38 289 0.0 1.0 0.00 0.02 0.00 94 1012.7
20260507073818 38 290 0.0 1.0 0.00 0.02 0.00 94 1012.5
20260507073318 38 289 0.0 1.0 0.00 0.03 0.00 94 1012.6
20260507072818 38 289 0.0 0.0 0.00 0.03 0.00 94 1012.5
20260507071818 38 290 0.0 0.0 0.00 0.04 0.00 94 1012.5
20260507071317 38 289 0.0 0.0 0.00 0.04 0.00 94 1012.5
20260507070317 38 289 0.0 0.0 0.00 0.04 0.00 94 1012.6
20260507065817 38 289 0.0 0.0 0.00 0.04 0.00 94 1012.5